"Pseudo-MPEC" for A11eZyP

Created 2024 Dec 7 17:31:03 UT using Find_Orb

Click here for an explanation of pseudo-MPECs

 
 Astrometry: 
     A11eZyP* C2024 11 30]5p6(SSpOvAstrometry`vt2UQK_a`p4*M_4Rafyy!I5]VBS`HOFM22
     A11eZyP  C2024 11 30xJX-U]lxb+(ijB,(A+]Dt@s`?Ia=M?K(WqDUZ)7#NTredacted;EM22
     A11eZyP  C2024 11 30Z6@?td9:e/4%(7fFd`KlqBjLVtcZHqY\b!\nP]#dc,!),?C11:-VM22
     A11eZyP  C2024 11 30f**R,Ueh=?iS^7*u:n8JB`ieKU3eFQo*]!:Hi1h2eIo!==:rg621M22
     A11eZyP  C2024 11 30U^@5q+6Tt_U4axFOd1/gZ1^w%V?;i*J'$`x/vcp9r_J+*4p9U*J9M22
     A11eZyP  C2024 11 30[)JTxm^ItcclickLK_Lh/e`H?d-IR#c-ag!CqKQorherejrl,[XtM22
     A11eZyP  C2024 12 01D^c;,(%:RXqoe3\@VSka#cQO/^1Mp_KpC4e*qkD#Iorh(T/8forbM22
     A11eZyP  C2024 12 01T?rQn'iY/9?4dIOFt@DwCexplanation:ofv#O5?]i^Ut-7dfW_4M22

Station data:
(M22) ATLAS South Africa, Sutherland  (S32.380156 E20.810590)  South Africa.
   Observers L. Denneau, R. Siverd, J. Tonry, H. Weiland. Measurers L.
   Denneau, N. Erasmus, A. Fitzsimmons, A. Lawrence, J. Robinson, R. Siverd,
   J. Tonry, H. Weiland. 0.5-m reflector + CCD.

Orbital elements:  A11eZyP
   Perigee 2024 Nov 30.54808 +/- 0.00116 TT = 13:09:13 (JD 2460645.04808)
Epoch 2024 Dec  1.0 TT = JDT 2460645.5                           AutoNEOCP
M 142.14959161 +/- 0.59             (J2000 equator)
n 314.54419108 +/- 1.87             Peri.  351.66458 +/- 0.15
a 46218.4872 +/- 183                Node   270.70607 +/- 0.015
e   0.7270909 +/- 0.00121           Incl.   16.52285 +/- 0.012
P1648.068m/1.144d          H 33.59  G  0.15   U 13.2
q 12613.4438 +/- 105    Q 79823.5306 +/- 264
From 8 observations 2024 Nov. 30-Dec. 1 (3.1 hr); mean residual 2".32
Residuals in arcseconds: 
241130 M22  .30+  1.4-    241130 M22  4.9+  1.8-    241201 M22  3.1+  1.1-    
241130 M22  .87+  .49+    241130 M22  .55+  .57-    241201 M22  1.2-  .51+    
241130 M22  4.4-  2.3+    241130 M22  4.0-  1.6+    

Ephemerides (geocentric):
Date (UTC) HH   RA             Dec           delta  r     elong  mag " sig PA
---- --------  ------------   ------------  ------ ------ -----  --- --------
2024 12 07 18  04 19 50.103   +07 13 14.92   69984 .98554 162.0 17.8 203' 105
2024 12 07 19  04 34 24.307   +06 15 08.93   73218 .98556 162.6 17.9 184' 105
2024 12 07 20  04 47 48.928   +05 20 08.68   75774 .98557 162.5 18.0 170' 106
2024 12 07 21  05 00 25.119   +04 27 18.19   77687 .98558 161.8 18.1 9645 106
2024 12 07 22  05 12 28.910   +03 35 51.08   78985 .98557 160.6 18.2 9278 106
2024 12 07 23  05 24 13.306   +02 45 06.76   79681 .98557 159.1 18.2 9075 106
2024 12 08 00  05 35 49.654   +01 54 27.56   79786 .98556 157.4 18.3 9020 106
2024 12 08 01  05 47 28.658   +01 03 16.24   79301 .98554 155.4 18.3 9106 106
2024 12 08 02  05 59 21.262   +00 10 53.58   78219 .98552 153.2 18.4 9340 107
2024 12 08 03  06 11 39.590   -00 43 24.39   76527 .98549 150.8 18.4 9742 106
2024 12 08 04  06 24 38.132   -01 40 29.86   74203 .98546 148.1 18.4 172' 106
2024 12 08 05  06 38 35.477   -02 41 28.26   71216 .98543 145.1 18.4 187' 106
2024 12 08 06  06 53 57.145   -03 47 45.85   67520 .98538 141.6 18.4 207' 106
2024 12 08 07  07 11 20.642   -05 01 22.05   63055 .98534 137.7 18.3 237' 106
2024 12 08 08  07 31 45.398   -06 25 10.49   57738 .98528 133.0 18.3 280' 105
2024 12 08 09  07 56 54.477   -08 03 35.65   51451 .98522 127.1 18.2 348' 104
2024 12 08 10  08 30 09.174   -10 03 33.04   44035 .98515 119.2 18.1 462' 103
2024 12 08 11  09 19 15.817   -12 35 03.08   35270 .98507 107.7 18.0 684' 101
2024 12 08 12  10 47 43.162   -15 35 07.72   24961 .98499  87.1 18.0  20d  95
2024 12 08 13  14 34 07.892   -13 02 07.90   14416 .98491  36.3 20??  53d  80
2024 12 08 14  21 26 58.480   +12 55 47.93   15996 .98496  74.0 17.6 100d  80
2024 12 08 15  00 32 52.219   +16 14 39.59   26898 .98506 116.7 17.1  42d  92
2024 12 08 16  01 52 14.147   +14 36 05.31   36935 .98515 134.4 17.3  18d  98
2024 12 08 17  02 38 33.335   +12 49 59.64   45444 .98522 144.4 17.4 652' 100
2024 12 08 18  03 10 40.315   +11 17 13.85   52646 .98527 150.9 17.6 460' 102
2024 12 08 19  03 35 17.189   +09 56 30.29   58750 .98531 155.4 17.7 357' 103
2024 12 08 20  03 55 25.017   +08 44 53.70   63909 .98535 158.6 17.8 294' 104
2024 12 08 21  04 12 39.026   +07 40 00.95   68232 .98538 160.6 17.8 254' 105
2024 12 08 22  04 27 55.156   +06 40 05.21   71798 .98540 161.7 17.9 226' 105
2024 12 08 23  04 41 49.196   +05 43 46.30   74664 .98541 162.1 18.0 206' 105
2024 12 09 00  04 54 45.761   +04 50 02.01   76873 .98542 161.9 18.1 193' 106
2024 12 09 01  05 07 02.940   +03 58 02.01   78454 .98542 161.1 18.1 184' 106
2024 12 09 02  05 18 54.948   +03 07 03.37   79429 .98542 160.0 18.2 178' 106
2024 12 09 03  05 30 33.763   +02 16 27.38   79809 .98541 158.5 18.2 176' 106
2024 12 09 04  05 42 10.276   +01 25 36.91   79598 .98540 156.7 18.3 176' 106
2024 12 09 05  05 53 55.215   +00 33 53.97   78795 .98538 154.7 18.3 179' 106
2024 12 09 06  06 06 00.030   -00 19 22.78   77389 .98536 152.5 18.4 184' 106
2024 12 09 07  06 18 37.943   -01 15 01.16   75362 .98533 150.0 18.4 194' 106
2024 12 09 08  06 32 05.373   -02 13 59.63   72688 .98529 147.2 18.4 207' 106
2024 12 09 09  06 46 44.170   -03 17 33.47   69328 .98526 144.0 18.4 227' 106
2024 12 09 10  07 03 05.428   -04 27 24.55   65229 .98521 140.4 18.3 255' 106
2024 12 09 11  07 21 56.666   -05 45 57.62   60320 .98516 136.1 18.3 295' 105
2024 12 09 12  07 44 36.704   -07 16 48.47   54501 .98510 130.9 18.2 356' 105
2024 12 09 13  08 13 30.528   -09 05 32.60   47633 .98504 124.1 18.1 454' 104
2024 12 09 14  08 53 45.757   -11 20 49.40   39524 .98496 114.7 18.0 630' 102
2024 12 09 15  09 58 51.309   -14 11 22.94   29940 .98488  99.5 17.9  17d  98
2024 12 09 16  12 18 10.161   -16 20 35.48   19001 .98479  67.6 18.4  35d  89
2024 12 09 17  18 29 21.396   +02 02 19.21   12793 .98476  32.0 21??  97d  74